Terug naar catalogus

GEESAT 3-10

ActiefCommunicatieLEO
NORAD 61020·PAYLOAD·🇨🇳 China

Gelanceerd Sep 5, 2024 vanaf Taiyuan Satellite Launch Center

Loading…

Volgende Passages (komende 24 uur)

TLE

VersSource: Space-Track

Epoch: Sep 14, 2026, 20:00 UTC

1 61020U 24159K   26257.83402408  .00001590  00000-0  21345-3 0  9994
2 61020  50.0008  27.3351 0003823  98.8075 261.3297 14.84496533109825

Volg GEESAT 3-10 in realtime met AllMySat

Download on the App Store